Time,TemperatureF,DewpointF,PressureIn,WindDirection,WindDirectionDegrees,WindSpeedMPH,WindSpeedGustMPH,Humidity,HourlyPrecipIn,Conditions,Clouds,dailyrainin,SoftwareType,DateUTC
2013-12-05 00:04:00,1.3,-7.7,30.65,NW,323,9.0,12.0,65,0.00,,,0.00,Wunderground v.1.15,2013-12-05 07:04:00,
2013-12-05 00:10:00,1.2,-7.5,30.66,NW,315,8.0,8.0,66,0.00,,,0.00,Wunderground v.1.15,2013-12-05 07:10:00,
2013-12-05 00:16:00,1.0,-7.7,30.65,NNW,333,7.0,8.0,66,0.00,,,0.00,Wunderground v.1.15,2013-12-05 07:16:00,
2013-12-05 00:22:00,1.1,-7.9,30.65,NW,326,7.0,9.0,65,0.00,,,0.00,Wunderground v.1.15,2013-12-05 07:22:00,
2013-12-05 00:28:00,0.9,-8.1,30.65,NNW,336,7.0,9.0,65,0.00,,,0.00,Wunderground v.1.15,2013-12-05 07:28:00,
2013-12-05 00:34:00,0.8,-8.2,30.65,NNW,342,6.0,7.0,65,0.00,,,0.00,Wunderground v.1.15,2013-12-05 07:34:00,
2013-12-05 00:40:00,0.7,-8.0,30.64,NNW,342,6.0,7.0,66,0.00,,,0.00,Wunderground v.1.15,2013-12-05 07:40:00,
2013-12-05 00:46:00,0.6,-8.1,30.64,North,354,6.0,7.0,66,0.00,,,0.00,Wunderground v.1.15,2013-12-05 07:46:00,
2013-12-05 00:52:00,0.7,-8.0,30.64,NNW,341,5.0,7.0,66,0.00,,,0.00,Wunderground v.1.15,2013-12-05 07:52:00,
2013-12-05 00:58:00,0.8,-7.9,30.64,NNW,333,5.0,7.0,66,0.00,,,0.00,Wunderground v.1.15,2013-12-05 07:58:00,
2013-12-05 01:04:00,0.8,-7.9,30.64,NNW,336,6.0,7.0,66,0.00,,,0.00,Wunderground v.1.15,2013-12-05 08:04:00,
2013-12-05 01:10:00,0.7,-8.0,30.64,NW,320,5.0,5.0,66,0.00,,,0.00,Wunderground v.1.15,2013-12-05 08:10:00,
2013-12-05 01:16:00,0.6,-8.1,30.64,NW,311,5.0,9.0,66,0.00,,,0.00,Wunderground v.1.15,2013-12-05 08:16:00,
2013-12-05 01:22:00,0.5,-7.9,30.65,NW,306,4.0,7.0,67,0.00,,,0.00,Wunderground v.1.15,2013-12-05 08:22:00,
2013-12-05 01:28:00,0.4,-8.0,30.65,NW,305,5.0,7.0,67,0.00,,,0.00,Wunderground v.1.15,2013-12-05 08:28:00,
2013-12-05 01:34:00,0.3,-8.1,30.65,WNW,295,5.0,7.0,67,0.00,,,0.00,Wunderground v.1.15,2013-12-05 08:34:00,
2013-12-05 01:40:00,-0.1,-8.5,30.66,WNW,287,4.0,7.0,67,0.00,,,0.00,Wunderground v.1.15,2013-12-05 08:40:00,
2013-12-05 01:46:00,-0.2,-8.6,30.66,West,280,4.0,7.0,67,0.00,,,0.00,Wunderground v.1.15,2013-12-05 08:46:00,
2013-12-05 01:52:00,-0.6,-8.6,30.67,WNW,286,4.0,7.0,68,0.00,,,0.00,Wunderground v.1.15,2013-12-05 08:52:00,
2013-12-05 01:58:00,-1.0,-9.0,30.67,WNW,291,3.0,7.0,68,0.00,,,0.00,Wunderground v.1.15,2013-12-05 08:58:00,
2013-12-05 02:04:00,-0.9,-8.6,30.67,WNW,289,2.0,7.0,69,0.00,,,0.00,Wunderground v.1.15,2013-12-05 09:04:00,
2013-12-05 02:10:00,-0.5,-8.5,30.67,WNW,285,4.0,7.0,68,0.00,,,0.00,Wunderground v.1.15,2013-12-05 09:10:00,
2013-12-05 02:16:00,-0.7,-9.0,30.67,West,278,4.0,9.0,67,0.00,,,0.00,Wunderground v.1.15,2013-12-05 09:16:00,
2013-12-05 02:22:00,-0.5,-8.5,30.67,WNW,297,4.0,7.0,68,0.00,,,0.00,Wunderground v.1.15,2013-12-05 09:22:00,
2013-12-05 02:28:00,-0.4,-8.4,30.67,NW,305,5.0,7.0,68,0.00,,,0.00,Wunderground v.1.15,2013-12-05 09:28:00,
2013-12-05 02:34:00,-0.4,-8.2,30.67,NW,314,4.0,7.0,69,0.00,,,0.00,Wunderground v.1.15,2013-12-05 09:34:00,
2013-12-05 02:40:00,-0.6,-8.3,30.67,NW,312,4.0,4.0,69,0.00,,,0.00,Wunderground v.1.15,2013-12-05 09:40:00,
2013-12-05 02:46:00,-0.9,-8.6,30.67,WNW,291,4.0,7.0,69,0.00,,,0.00,Wunderground v.1.15,2013-12-05 09:46:00,
2013-12-05 02:52:00,-1.1,-8.5,30.67,NW,305,3.0,7.0,70,0.00,,,0.00,Wunderground v.1.15,2013-12-05 09:52:00,
2013-12-05 02:58:00,-1.2,-8.6,30.67,NW,305,2.0,7.0,70,0.00,,,0.00,Wunderground v.1.15,2013-12-05 09:58:00,
2013-12-05 03:04:00,-1.5,-8.9,30.67,SW,227,1.0,7.0,70,0.00,,,0.00,Wunderground v.1.15,2013-12-05 10:04:00,
2013-12-05 03:10:00,-1.3,-8.7,30.67,WNW,299,2.0,2.0,70,0.00,,,0.00,Wunderground v.1.15,2013-12-05 10:10:00,
2013-12-05 03:16:00,-1.4,-8.8,30.67,WNW,299,2.0,7.0,70,0.00,,,0.00,Wunderground v.1.15,2013-12-05 10:16:00,
2013-12-05 03:22:00,-1.7,-9.1,30.67,WNW,299,1.0,7.0,70,0.00,,,0.00,Wunderground v.1.15,2013-12-05 10:22:00,
2013-12-05 03:28:00,-1.7,-8.8,30.67,WNW,299,2.0,7.0,71,0.00,,,0.00,Wunderground v.1.15,2013-12-05 10:28:00,
2013-12-05 03:34:00,-1.7,-9.1,30.67,WNW,299,2.0,7.0,70,0.00,,,0.00,Wunderground v.1.15,2013-12-05 10:34:00,
2013-12-05 03:40:00,-2.0,-9.4,30.67,WNW,299,1.0,7.0,70,0.00,,,0.00,Wunderground v.1.15,2013-12-05 10:40:00,
2013-12-05 03:46:00,-2.7,-10.1,30.67,WNW,299,1.0,7.0,70,0.00,,,0.00,Wunderground v.1.15,2013-12-05 10:46:00,
2013-12-05 03:52:00,-2.8,-9.6,30.67,WNW,299,1.0,7.0,72,0.00,,,0.00,Wunderground v.1.15,2013-12-05 10:52:00,
2013-12-05 03:58:00,-2.9,-9.7,30.67,WNW,299,1.0,7.0,72,0.00,,,0.00,Wunderground v.1.15,2013-12-05 10:58:00,
2013-12-05 04:04:00,-3.0,-9.8,30.68,WNW,299,2.0,7.0,72,0.00,,,0.00,Wunderground v.1.15,2013-12-05 11:04:00,
2013-12-05 04:10:00,-2.8,-9.6,30.68,WNW,299,2.0,7.0,72,0.00,,,0.00,Wunderground v.1.15,2013-12-05 11:10:00,
2013-12-05 04:16:00,-2.5,-9.3,30.68,WNW,299,2.0,7.0,72,0.00,,,0.00,Wunderground v.1.15,2013-12-05 11:16:00,
2013-12-05 04:22:00,-2.5,-9.3,30.68,WNW,299,1.0,7.0,72,0.00,,,0.00,Wunderground v.1.15,2013-12-05 11:22:00,
2013-12-05 04:28:00,-2.5,-9.6,30.68,WNW,299,2.0,7.0,71,0.00,,,0.00,Wunderground v.1.15,2013-12-05 11:28:00,
2013-12-05 04:34:00,-2.6,-9.4,30.68,WNW,299,2.0,7.0,72,0.00,,,0.00,Wunderground v.1.15,2013-12-05 11:34:00,
2013-12-05 04:40:00,-2.5,-9.3,30.68,WNW,299,1.0,7.0,72,0.00,,,0.00,Wunderground v.1.15,2013-12-05 11:40:00,
2013-12-05 04:46:00,-2.6,-9.7,30.68,WNW,299,2.0,7.0,71,0.00,,,0.00,Wunderground v.1.15,2013-12-05 11:46:00,
2013-12-05 04:52:00,-2.8,-9.9,30.69,WNW,299,2.0,7.0,71,0.00,,,0.00,Wunderground v.1.15,2013-12-05 11:52:00,
2013-12-05 04:58:00,-3.0,-10.1,30.68,WNW,299,1.0,7.0,71,0.00,,,0.00,Wunderground v.1.15,2013-12-05 11:58:00,
2013-12-05 05:04:00,-3.6,-10.7,30.69,WNW,299,1.0,7.0,71,0.00,,,0.00,Wunderground v.1.15,2013-12-05 12:04:00,
2013-12-05 05:10:00,-3.3,-9.8,30.68,WNW,299,1.0,1.0,73,0.00,,,0.00,Wunderground v.1.15,2013-12-05 12:10:00,
2013-12-05 05:16:00,-3.4,-9.9,30.69,WNW,299,1.0,7.0,73,0.00,,,0.00,Wunderground v.1.15,2013-12-05 12:16:00,
2013-12-05 05:22:00,-2.9,-9.4,30.69,SSE,147,2.0,7.0,73,0.00,,,0.00,Wunderground v.1.15,2013-12-05 12:22:00,
2013-12-05 05:28:00,-3.2,-10.0,30.69,WNW,282,2.0,7.0,72,0.00,,,0.00,Wunderground v.1.15,2013-12-05 12:28:00,
2013-12-05 05:34:00,-2.9,-9.7,30.69,West,276,3.0,7.0,72,0.00,,,0.00,Wunderground v.1.15,2013-12-05 12:34:00,
2013-12-05 05:40:00,-3.2,-10.3,30.69,West,276,2.0,7.0,71,0.00,,,0.00,Wunderground v.1.15,2013-12-05 12:40:00,
2013-12-05 05:46:00,-3.7,-10.5,30.69,West,276,1.0,7.0,72,0.00,,,0.00,Wunderground v.1.15,2013-12-05 12:46:00,
2013-12-05 05:52:00,-4.3,-11.0,30.69,West,276,1.0,7.0,72,0.00,,,0.00,Wunderground v.1.15,2013-12-05 12:52:00,
2013-12-05 05:58:00,-4.9,-11.3,30.69,West,276,1.0,7.0,73,0.00,,,0.00,Wunderground v.1.15,2013-12-05 12:58:00,
2013-12-05 06:04:00,-5.2,-11.4,30.69,West,276,1.0,7.0,74,0.00,,,0.00,Wunderground v.1.15,2013-12-05 13:04:00,
2013-12-05 06:10:00,-5.3,-11.2,30.70,West,276,1.0,1.0,75,0.00,,,0.00,Wunderground v.1.15,2013-12-05 13:10:00,
2013-12-05 06:16:00,-5.4,-11.3,30.70,West,276,1.0,7.0,75,0.00,,,0.00,Wunderground v.1.15,2013-12-05 13:16:00,
2013-12-05 06:22:00,-5.2,-10.8,30.70,West,276,1.0,7.0,76,0.00,,,0.00,Wunderground v.1.15,2013-12-05 13:22:00,
2013-12-05 06:28:00,-5.0,-10.4,30.71,West,276,2.0,7.0,77,0.00,,,0.00,Wunderground v.1.15,2013-12-05 13:28:00,
2013-12-05 06:34:00,-4.9,-10.3,30.71,West,276,2.0,7.0,77,0.00,,,0.00,Wunderground v.1.15,2013-12-05 13:34:00,
2013-12-05 06:40:00,-4.3,-10.0,30.71,West,276,2.0,2.0,76,0.00,,,0.00,Wunderground v.1.15,2013-12-05 13:40:00,
2013-12-05 06:46:00,-3.5,-9.2,30.72,West,276,1.0,7.0,76,0.00,,,0.00,Wunderground v.1.15,2013-12-05 13:46:00,
2013-12-05 06:52:00,-3.0,-9.0,30.72,West,276,0.0,7.0,75,0.00,,,0.00,Wunderground v.1.15,2013-12-05 13:52:00,
2013-12-05 06:58:00,-2.8,-9.0,30.72,West,276,0.0,7.0,74,0.00,,,0.00,Wunderground v.1.15,2013-12-05 13:58:00,
2013-12-05 07:04:00,-2.5,-9.0,30.72,West,276,0.0,7.0,73,0.00,,,0.00,Wunderground v.1.15,2013-12-05 14:04:00,
2013-12-05 07:10:00,-2.3,-8.8,30.72,West,276,1.0,7.0,73,0.00,,,0.00,Wunderground v.1.15,2013-12-05 14:10:00,
2013-12-05 07:16:00,-2.1,-8.9,30.72,West,276,1.0,7.0,72,0.00,,,0.00,Wunderground v.1.15,2013-12-05 14:16:00,
2013-12-05 07:22:00,-2.0,-9.1,30.73,West,276,0.0,7.0,71,0.00,,,0.00,Wunderground v.1.15,2013-12-05 14:22:00,
2013-12-05 07:28:00,-2.0,-9.1,30.73,West,276,0.0,7.0,71,0.00,,,0.00,Wunderground v.1.15,2013-12-05 14:28:00,
2013-12-05 07:34:00,-1.8,-8.9,30.73,West,276,0.0,7.0,71,0.00,,,0.00,Wunderground v.1.15,2013-12-05 14:34:00,
2013-12-05 07:40:00,-1.7,-8.8,30.73,West,276,0.0,7.0,71,0.00,,,0.00,Wunderground v.1.15,2013-12-05 14:40:00,
2013-12-05 07:46:00,-1.5,-8.9,30.73,West,276,0.0,7.0,70,0.00,,,0.00,Wunderground v.1.15,2013-12-05 14:46:00,
2013-12-05 07:52:00,-1.4,-8.8,30.73,West,276,0.0,7.0,70,0.00,,,0.00,Wunderground v.1.15,2013-12-05 14:52:00,
2013-12-05 07:58:00,-1.3,-9.0,30.74,West,276,0.0,7.0,69,0.00,,,0.00,Wunderground v.1.15,2013-12-05 14:58:00,
2013-12-05 08:04:00,-1.3,-9.0,30.74,West,276,0.0,7.0,69,0.00,,,0.00,Wunderground v.1.15,2013-12-05 15:04:00,
2013-12-05 08:10:00,-1.0,-8.7,30.74,West,276,0.0,7.0,69,0.00,,,0.00,Wunderground v.1.15,2013-12-05 15:10:00,
2013-12-05 08:16:00,-0.8,-8.8,30.75,West,276,0.0,7.0,68,0.00,,,0.00,Wunderground v.1.15,2013-12-05 15:16:00,
2013-12-05 08:22:00,-0.7,-8.7,30.75,West,276,1.0,7.0,68,0.00,,,0.00,Wunderground v.1.15,2013-12-05 15:22:00,
2013-12-05 08:28:00,-0.4,-8.4,30.75,West,276,0.0,7.0,68,0.00,,,0.00,Wunderground v.1.15,2013-12-05 15:28:00,
2013-12-05 08:34:00,-0.3,-8.7,30.75,West,276,1.0,7.0,67,0.00,,,0.00,Wunderground v.1.15,2013-12-05 15:34:00,
2013-12-05 08:40:00,-0.2,-8.6,30.76,WSW,248,1.0,7.0,67,0.00,,,0.00,Wunderground v.1.15,2013-12-05 15:40:00,
2013-12-05 08:46:00,0.2,-8.2,30.76,South,189,1.0,7.0,67,0.00,,,0.00,Wunderground v.1.15,2013-12-05 15:46:00,
2013-12-05 08:52:00,0.7,-7.7,30.76,SSW,197,2.0,7.0,67,0.00,,,0.00,Wunderground v.1.15,2013-12-05 15:52:00,
2013-12-05 08:58:00,1.0,-7.7,30.76,SSW,197,2.0,7.0,66,0.00,,,0.00,Wunderground v.1.15,2013-12-05 15:58:00,
2013-12-05 09:04:00,1.5,-7.2,30.76,SSW,197,2.0,7.0,66,0.00,,,0.00,Wunderground v.1.15,2013-12-05 16:04:00,
2013-12-05 09:10:00,1.9,-7.2,30.76,SSW,196,3.0,3.0,65,0.00,,,0.00,Wunderground v.1.15,2013-12-05 16:10:00,
2013-12-05 09:16:00,2.5,-6.6,30.77,SSW,197,3.0,7.0,65,0.00,,,0.00,Wunderground v.1.15,2013-12-05 16:16:00,
2013-12-05 09:22:00,2.7,-6.1,30.77,South,177,3.0,7.0,66,0.00,,,0.00,Wunderground v.1.15,2013-12-05 16:22:00,
2013-12-05 09:28:00,2.6,-5.6,30.77,South,177,5.0,7.0,68,0.00,,,0.00,Wunderground v.1.15,2013-12-05 16:28:00,
2013-12-05 09:34:00,2.6,-5.9,30.77,SSW,202,6.0,7.0,67,0.00,,,0.00,Wunderground v.1.15,2013-12-05 16:34:00,
2013-12-05 09:40:00,2.5,-5.7,30.77,SSW,197,7.0,8.0,68,0.00,,,0.00,Wunderground v.1.15,2013-12-05 16:40:00,
2013-12-05 09:46:00,2.8,-5.1,30.77,South,189,7.0,8.0,69,0.00,,,0.00,Wunderground v.1.15,2013-12-05 16:46:00,
2013-12-05 09:52:00,3.2,-5.3,30.77,South,187,5.0,7.0,67,0.00,,,0.00,Wunderground v.1.15,2013-12-05 16:52:00,
2013-12-05 09:58:00,3.9,-5.6,30.78,SSW,204,3.0,7.0,64,0.00,,,0.00,Wunderground v.1.15,2013-12-05 16:58:00,
2013-12-05 10:04:00,4.1,-4.8,30.78,South,185,3.0,7.0,66,0.00,,,0.00,Wunderground v.1.15,2013-12-05 17:04:00,
2013-12-05 10:10:00,4.4,-5.1,30.78,SSW,193,3.0,3.0,64,0.00,,,0.00,Wunderground v.1.15,2013-12-05 17:10:00,
2013-12-05 10:16:00,4.4,-6.1,30.78,SW,235,3.0,7.0,61,0.00,,,0.00,Wunderground v.1.15,2013-12-05 17:16:00,
2013-12-05 10:22:00,4.3,-6.2,30.78,West,267,3.0,7.0,61,0.00,,,0.00,Wunderground v.1.15,2013-12-05 17:22:00,
2013-12-05 10:28:00,4.3,-6.5,30.78,WNW,301,3.0,7.0,60,0.00,,,0.00,Wunderground v.1.15,2013-12-05 17:28:00,
2013-12-05 10:34:00,4.3,-6.5,30.78,NW,305,4.0,7.0,60,0.00,,,0.00,Wunderground v.1.15,2013-12-05 17:34:00,
2013-12-05 10:40:00,4.4,-6.1,30.77,NNW,338,3.0,7.0,61,0.00,,,0.00,Wunderground v.1.15,2013-12-05 17:40:00,
2013-12-05 10:46:00,4.3,-6.2,30.77,NNW,346,4.0,7.0,61,0.00,,,0.00,Wunderground v.1.15,2013-12-05 17:46:00,
2013-12-05 10:52:00,4.3,-6.5,30.77,North,350,4.0,7.0,60,0.00,,,0.00,Wunderground v.1.15,2013-12-05 17:52:00,
2013-12-05 10:58:00,4.0,-6.5,30.77,North,4,5.0,9.0,61,0.00,,,0.00,Wunderground v.1.15,2013-12-05 17:58:00,
2013-12-05 11:04:00,3.7,-6.4,30.77,North,4,5.0,7.0,62,0.00,,,0.00,Wunderground v.1.15,2013-12-05 18:04:00,
2013-12-05 11:10:00,3.5,-6.6,30.77,NNW,342,6.0,7.0,62,0.00,,,0.00,Wunderground v.1.15,2013-12-05 18:10:00,
2013-12-05 11:16:00,3.7,-6.1,30.77,North,354,6.0,9.0,63,0.00,,,0.00,Wunderground v.1.15,2013-12-05 18:16:00,
2013-12-05 11:22:00,3.3,-6.8,30.77,NW,318,7.0,7.0,62,0.00,,,0.00,Wunderground v.1.15,2013-12-05 18:22:00,
2013-12-05 11:28:00,3.3,-6.5,30.76,North,359,7.0,7.0,63,0.00,,,0.00,Wunderground v.1.15,2013-12-05 18:28:00,
2013-12-05 11:34:00,3.7,-5.8,30.76,NNW,341,6.0,7.0,64,0.00,,,0.00,Wunderground v.1.15,2013-12-05 18:34:00,
2013-12-05 11:40:00,3.5,-6.0,30.77,NNW,329,7.0,7.0,64,0.00,,,0.00,Wunderground v.1.15,2013-12-05 18:40:00,
2013-12-05 11:46:00,3.7,-5.5,30.76,NW,321,7.0,10.0,65,0.00,,,0.00,Wunderground v.1.15,2013-12-05 18:46:00,
2013-12-05 11:52:00,3.5,-6.0,30.76,NNW,332,8.0,10.0,64,0.00,,,0.00,Wunderground v.1.15,2013-12-05 18:52:00,
2013-12-05 11:58:00,3.6,-5.5,30.76,North,349,8.0,10.0,65,0.00,,,0.00,Wunderground v.1.15,2013-12-05 18:58:00,
2013-12-05 12:04:00,3.6,-5.9,30.76,NW,324,6.0,8.0,64,0.00,,,0.00,Wunderground v.1.15,2013-12-05 19:04:00,
2013-12-05 12:10:00,3.7,-5.8,30.75,NNW,337,6.0,6.0,64,0.00,,,0.00,Wunderground v.1.15,2013-12-05 19:10:00,
2013-12-05 12:16:00,3.9,-5.6,30.75,NNW,332,5.0,8.0,64,0.00,,,0.00,Wunderground v.1.15,2013-12-05 19:16:00,
2013-12-05 12:22:00,4.0,-5.8,30.75,NNW,341,5.0,7.0,63,0.00,,,0.00,Wunderground v.1.15,2013-12-05 19:22:00,
2013-12-05 12:28:00,4.0,-6.1,30.75,North,359,5.0,7.0,62,0.00,,,0.00,Wunderground v.1.15,2013-12-05 19:28:00,
2013-12-05 12:34:00,4.3,-5.9,30.75,North,9,3.0,7.0,62,0.00,,,0.00,Wunderground v.1.15,2013-12-05 19:34:00,
2013-12-05 12:40:00,4.6,-5.6,30.74,WNW,293,3.0,7.0,62,0.00,,,0.00,Wunderground v.1.15,2013-12-05 19:40:00,
2013-12-05 12:46:00,4.5,-6.3,30.74,NNW,339,4.0,7.0,60,0.00,,,0.00,Wunderground v.1.15,2013-12-05 19:46:00,
2013-12-05 12:52:00,4.5,-5.0,30.73,NNW,341,4.0,7.0,64,0.00,,,0.00,Wunderground v.1.15,2013-12-05 19:52:00,
2013-12-05 12:58:00,4.1,-5.1,30.73,NNW,345,6.0,7.0,65,0.00,,,0.00,Wunderground v.1.15,2013-12-05 19:58:00,
2013-12-05 13:04:00,3.8,-5.4,30.73,NNW,329,6.0,7.0,65,0.00,,,0.00,Wunderground v.1.15,2013-12-05 20:04:00,
2013-12-05 13:10:00,3.6,-5.2,30.73,North,354,6.0,8.0,66,0.00,,,0.00,Wunderground v.1.15,2013-12-05 20:10:00,
2013-12-05 13:16:00,3.7,-5.1,30.73,NNW,348,6.0,8.0,66,0.00,,,0.00,Wunderground v.1.15,2013-12-05 20:16:00,
2013-12-05 13:22:00,3.6,-4.9,30.73,NNW,347,6.0,8.0,67,0.00,,,0.00,Wunderground v.1.15,2013-12-05 20:22:00,
2013-12-05 13:28:00,3.2,-5.6,30.73,North,350,7.0,8.0,66,0.00,,,0.00,Wunderground v.1.15,2013-12-05 20:28:00,
2013-12-05 13:34:00,3.2,-5.3,30.73,NNW,342,7.0,10.0,67,0.00,,,0.00,Wunderground v.1.15,2013-12-05 20:34:00,
2013-12-05 13:40:00,3.1,-5.4,30.73,North,350,7.0,7.0,67,0.00,,,0.00,Wunderground v.1.15,2013-12-05 20:40:00,
2013-12-05 13:46:00,3.2,-5.3,30.73,North,354,7.0,8.0,67,0.00,,,0.00,Wunderground v.1.15,2013-12-05 20:46:00,
2013-12-05 13:52:00,3.3,-4.9,30.73,North,349,7.0,8.0,68,0.00,,,0.00,Wunderground v.1.15,2013-12-05 20:52:00,
2013-12-05 13:58:00,3.1,-5.4,30.74,NNW,339,7.0,10.0,67,0.00,,,0.00,Wunderground v.1.15,2013-12-05 20:58:00,
2013-12-05 14:04:00,3.2,-5.3,30.74,NNW,327,7.0,8.0,67,0.00,,,0.00,Wunderground v.1.15,2013-12-05 21:04:00,
2013-12-05 14:10:00,3.1,-5.4,30.74,North,354,7.0,8.0,67,0.00,,,0.00,Wunderground v.1.15,2013-12-05 21:10:00,
2013-12-05 14:16:00,3.1,-5.4,30.74,NW,324,7.0,10.0,67,0.00,,,0.00,Wunderground v.1.15,2013-12-05 21:16:00,
2013-12-05 14:22:00,3.2,-5.0,30.74,NW,317,7.0,7.0,68,0.00,,,0.00,Wunderground v.1.15,2013-12-05 21:22:00,
2013-12-05 14:28:00,3.3,-4.9,30.74,North,349,6.0,8.0,68,0.00,,,0.00,Wunderground v.1.15,2013-12-05 21:28:00,
2013-12-05 14:34:00,3.1,-5.4,30.75,North,349,6.0,8.0,67,0.00,,,0.00,Wunderground v.1.15,2013-12-05 21:34:00,
2013-12-05 14:40:00,2.8,-5.7,30.75,NNW,343,7.0,7.0,67,0.00,,,0.00,Wunderground v.1.15,2013-12-05 21:40:00,
2013-12-05 14:46:00,2.8,-5.4,30.75,North,354,7.0,7.0,68,0.00,,,0.00,Wunderground v.1.15,2013-12-05 21:46:00,
2013-12-05 14:52:00,2.7,-5.5,30.75,NNW,338,6.0,7.0,68,0.00,,,0.00,Wunderground v.1.15,2013-12-05 21:52:00,
2013-12-05 14:58:00,2.6,-5.3,30.75,North,359,6.0,7.0,69,0.00,,,0.00,Wunderground v.1.15,2013-12-05 21:58:00,
2013-12-05 15:04:00,2.3,-5.6,30.75,North,354,6.0,7.0,69,0.00,,,0.00,Wunderground v.1.15,2013-12-05 22:04:00,
2013-12-05 15:10:00,2.0,-5.5,30.75,North,349,6.0,7.0,70,0.00,,,0.00,Wunderground v.1.15,2013-12-05 22:10:00,
2013-12-05 15:16:00,1.8,-5.7,30.76,NNW,339,5.0,7.0,70,0.00,,,0.00,Wunderground v.1.15,2013-12-05 22:16:00,
2013-12-05 15:22:00,1.7,-5.8,30.76,North,10,5.0,7.0,70,0.00,,,0.00,Wunderground v.1.15,2013-12-05 22:22:00,
2013-12-05 15:28:00,1.7,-5.8,30.76,NW,325,5.0,8.0,70,0.00,,,0.00,Wunderground v.1.15,2013-12-05 22:28:00,
2013-12-05 15:34:00,1.7,-5.8,30.76,NNW,343,6.0,8.0,70,0.00,,,0.00,Wunderground v.1.15,2013-12-05 22:34:00,
2013-12-05 15:40:00,1.4,-5.8,30.76,NNW,335,6.0,6.0,71,0.00,,,0.00,Wunderground v.1.15,2013-12-05 22:40:00,
2013-12-05 15:46:00,1.2,-6.0,30.76,North,350,5.0,7.0,71,0.00,,,0.00,Wunderground v.1.15,2013-12-05 22:46:00,
2013-12-05 15:52:00,0.9,-6.3,30.76,North,359,4.0,7.0,71,0.00,,,0.00,Wunderground v.1.15,2013-12-05 22:52:00,
2013-12-05 15:58:00,0.8,-6.1,30.77,North,4,4.0,7.0,72,0.00,,,0.00,Wunderground v.1.15,2013-12-05 22:58:00,
2013-12-05 16:04:00,0.5,-6.4,30.77,NNW,335,3.0,7.0,72,0.00,,,0.00,Wunderground v.1.15,2013-12-05 23:04:00,
2013-12-05 16:10:00,0.4,-6.5,30.77,NW,322,3.0,7.0,72,0.00,,,0.00,Wunderground v.1.15,2013-12-05 23:10:00,
2013-12-05 16:16:00,0.2,-6.7,30.77,NNW,339,3.0,7.0,72,0.00,,,0.00,Wunderground v.1.15,2013-12-05 23:16:00,
2013-12-05 16:22:00,0.0,-6.9,30.77,NNW,344,2.0,7.0,72,0.00,,,0.00,Wunderground v.1.15,2013-12-05 23:22:00,
2013-12-05 16:28:00,-0.1,-6.7,30.78,NNW,345,2.0,7.0,73,0.00,,,0.00,Wunderground v.1.15,2013-12-05 23:28:00,
2013-12-05 16:34:00,-0.3,-6.9,30.78,North,11,3.0,7.0,73,0.00,,,0.00,Wunderground v.1.15,2013-12-05 23:34:00,
2013-12-05 16:40:00,-0.4,-7.0,30.79,North,359,3.0,3.0,73,0.00,,,0.00,Wunderground v.1.15,2013-12-05 23:40:00,
2013-12-05 16:46:00,-0.6,-7.2,30.79,North,4,2.0,7.0,73,0.00,,,0.00,Wunderground v.1.15,2013-12-05 23:46:00,
2013-12-05 16:52:00,-0.9,-7.5,30.79,NNW,343,2.0,3.0,73,0.00,,,0.00,Wunderground v.1.15,2013-12-05 23:52:00,
2013-12-05 16:58:00,-1.0,-7.6,30.80,NW,322,2.0,7.0,73,0.00,,,0.00,Wunderground v.1.15,2013-12-05 23:58:00,
2013-12-05 17:04:00,-1.3,-7.6,30.80,NW,325,2.0,7.0,74,0.00,,,0.00,Wunderground v.1.15,2013-12-06 00:04:00,
2013-12-05 17:10:00,-1.3,-7.6,30.80,NNW,332,2.0,7.0,74,0.00,,,0.00,Wunderground v.1.15,2013-12-06 00:10:00,
2013-12-05 17:16:00,-1.5,-7.8,30.80,NW,311,2.0,7.0,74,0.00,,,0.00,Wunderground v.1.15,2013-12-06 00:16:00,
2013-12-05 17:22:00,-1.6,-7.9,30.81,NW,306,2.0,7.0,74,0.00,,,0.00,Wunderground v.1.15,2013-12-06 00:22:00,
2013-12-05 17:28:00,-1.8,-8.1,30.81,NW,324,1.0,7.0,74,0.00,,,0.00,Wunderground v.1.15,2013-12-06 00:28:00,
2013-12-05 17:34:00,-2.0,-8.3,30.81,NW,321,2.0,7.0,74,0.00,,,0.00,Wunderground v.1.15,2013-12-06 00:34:00,
2013-12-05 17:40:00,-2.2,-8.5,30.81,NW,321,1.0,7.0,74,0.00,,,0.00,Wunderground v.1.15,2013-12-06 00:40:00,
2013-12-05 17:46:00,-2.5,-8.7,30.81,WNW,292,2.0,7.0,74,0.00,,,0.00,Wunderground v.1.15,2013-12-06 00:46:00,
2013-12-05 17:52:00,-2.7,-8.9,30.81,WNW,294,3.0,5.0,74,0.00,,,0.00,Wunderground v.1.15,2013-12-06 00:52:00,
2013-12-05 17:58:00,-2.8,-9.0,30.81,West,273,3.0,7.0,74,0.00,,,0.00,Wunderground v.1.15,2013-12-06 00:58:00,
2013-12-05 18:04:00,-3.1,-9.3,30.82,WSW,248,2.0,7.0,74,0.00,,,0.00,Wunderground v.1.15,2013-12-06 01:04:00,
2013-12-05 18:10:00,-3.2,-9.4,30.82,WNW,301,2.0,2.0,74,0.00,,,0.00,Wunderground v.1.15,2013-12-06 01:10:00,
2013-12-05 18:16:00,-3.4,-9.6,30.82,WNW,295,2.0,7.0,74,0.00,,,0.00,Wunderground v.1.15,2013-12-06 01:16:00,
2013-12-05 18:22:00,-3.5,-9.7,30.82,WNW,299,3.0,7.0,74,0.00,,,0.00,Wunderground v.1.15,2013-12-06 01:22:00,
2013-12-05 18:28:00,-3.8,-10.0,30.82,WNW,301,3.0,7.0,74,0.00,,,0.00,Wunderground v.1.15,2013-12-06 01:28:00,
2013-12-05 18:34:00,-4.0,-10.2,30.82,West,277,3.0,7.0,74,0.00,,,0.00,Wunderground v.1.15,2013-12-06 01:34:00,
2013-12-05 18:40:00,-4.4,-10.3,30.83,WNW,286,2.0,2.0,75,0.00,,,0.00,Wunderground v.1.15,2013-12-06 01:40:00,
2013-12-05 18:46:00,-4.5,-10.4,30.83,West,281,2.0,7.0,75,0.00,,,0.00,Wunderground v.1.15,2013-12-06 01:46:00,
2013-12-05 18:52:00,-4.5,-10.4,30.83,West,274,2.0,7.0,75,0.00,,,0.00,Wunderground v.1.15,2013-12-06 01:52:00,
2013-12-05 18:58:00,-4.6,-10.5,30.83,West,272,2.0,7.0,75,0.00,,,0.00,Wunderground v.1.15,2013-12-06 01:58:00,
2013-12-05 19:04:00,-4.6,-10.2,30.84,West,271,2.0,7.0,76,0.00,,,0.00,Wunderground v.1.15,2013-12-06 02:04:00,
2013-12-05 19:10:00,-4.6,-10.5,30.84,West,271,1.0,1.0,75,0.00,,,0.00,Wunderground v.1.15,2013-12-06 02:10:00,
2013-12-05 19:16:00,-4.7,-10.6,30.84,West,271,0.0,7.0,75,0.00,,,0.00,Wunderground v.1.15,2013-12-06 02:16:00,
2013-12-05 19:22:00,-4.8,-10.4,30.84,SW,235,2.0,7.0,76,0.00,,,0.00,Wunderground v.1.15,2013-12-06 02:22:00,
2013-12-05 19:28:00,-4.9,-10.8,30.85,SW,232,2.0,7.0,75,0.00,,,0.00,Wunderground v.1.15,2013-12-06 02:28:00,
2013-12-05 19:34:00,-5.0,-10.9,30.85,SW,232,1.0,7.0,75,0.00,,,0.00,Wunderground v.1.15,2013-12-06 02:34:00,
2013-12-05 19:40:00,-4.9,-10.5,30.85,WSW,243,1.0,7.0,76,0.00,,,0.00,Wunderground v.1.15,2013-12-06 02:40:00,
2013-12-05 19:46:00,-4.9,-10.5,30.86,West,278,2.0,7.0,76,0.00,,,0.00,Wunderground v.1.15,2013-12-06 02:46:00,
2013-12-05 19:52:00,-4.8,-10.4,30.86,West,268,2.0,7.0,76,0.00,,,0.00,Wunderground v.1.15,2013-12-06 02:52:00,
2013-12-05 19:58:00,-4.5,-10.1,30.86,NW,312,2.0,7.0,76,0.00,,,0.00,Wunderground v.1.15,2013-12-06 02:58:00,
2013-12-05 20:04:00,-4.2,-10.1,30.86,WNW,296,2.0,7.0,75,0.00,,,0.00,Wunderground v.1.15,2013-12-06 03:04:00,
2013-12-05 20:10:00,-4.2,-10.4,30.86,WNW,302,3.0,3.0,74,0.00,,,0.00,Wunderground v.1.15,2013-12-06 03:10:00,
2013-12-05 20:16:00,-4.4,-10.6,30.86,WNW,298,3.0,7.0,74,0.00,,,0.00,Wunderground v.1.15,2013-12-06 03:16:00,
2013-12-05 20:22:00,-4.8,-11.0,30.86,WNW,293,3.0,7.0,74,0.00,,,0.00,Wunderground v.1.15,2013-12-06 03:22:00,
2013-12-05 20:28:00,-5.1,-11.0,30.86,WNW,285,2.0,7.0,75,0.00,,,0.00,Wunderground v.1.15,2013-12-06 03:28:00,
2013-12-05 20:34:00,-5.4,-11.3,30.86,West,276,2.0,7.0,75,0.00,,,0.00,Wunderground v.1.15,2013-12-06 03:34:00,
2013-12-05 20:40:00,-5.6,-11.5,30.86,WSW,255,2.0,7.0,75,0.00,,,0.00,Wunderground v.1.15,2013-12-06 03:40:00,
2013-12-05 20:46:00,-5.9,-11.8,30.86,West,266,3.0,7.0,75,0.00,,,0.00,Wunderground v.1.15,2013-12-06 03:46:00,
2013-12-05 20:52:00,-5.9,-11.5,30.87,West,268,3.0,7.0,76,0.00,,,0.00,Wunderground v.1.15,2013-12-06 03:52:00,
2013-12-05 20:58:00,-6.1,-11.7,30.87,WSW,256,2.0,7.0,76,0.00,,,0.00,Wunderground v.1.15,2013-12-06 03:58:00,
2013-12-05 21:04:00,-6.2,-11.8,30.87,West,272,3.0,7.0,76,0.00,,,0.00,Wunderground v.1.15,2013-12-06 04:04:00,
2013-12-05 21:10:00,-6.2,-11.8,30.87,West,272,2.0,2.0,76,0.00,,,0.00,Wunderground v.1.15,2013-12-06 04:10:00,
2013-12-05 21:16:00,-6.1,-11.7,30.87,West,272,1.0,7.0,76,0.00,,,0.00,Wunderground v.1.15,2013-12-06 04:16:00,
2013-12-05 21:22:00,-5.9,-11.2,30.87,West,272,1.0,7.0,77,0.00,,,0.00,Wunderground v.1.15,2013-12-06 04:22:00,
2013-12-05 21:28:00,-6.1,-11.7,30.87,West,272,0.0,7.0,76,0.00,,,0.00,Wunderground v.1.15,2013-12-06 04:28:00,
2013-12-05 21:34:00,-6.0,-11.3,30.87,West,272,0.0,7.0,77,0.00,,,0.00,Wunderground v.1.15,2013-12-06 04:34:00,
2013-12-05 21:40:00,-6.0,-11.3,30.88,West,272,0.0,7.0,77,0.00,,,0.00,Wunderground v.1.15,2013-12-06 04:40:00,
2013-12-05 21:46:00,-6.1,-11.4,30.88,West,272,0.0,7.0,77,0.00,,,0.00,Wunderground v.1.15,2013-12-06 04:46:00,
2013-12-05 21:52:00,-6.2,-11.5,30.88,West,272,0.0,7.0,77,0.00,,,0.00,Wunderground v.1.15,2013-12-06 04:52:00,
2013-12-05 21:58:00,-6.4,-11.7,30.88,West,272,0.0,7.0,77,0.00,,,0.00,Wunderground v.1.15,2013-12-06 04:58:00,
2013-12-05 22:02:00,-6.6,-11.9,30.88,West,272,0.0,7.0,77,0.00,,,0.00,Wunderground v.1.15,2013-12-06 05:02:00,
2013-12-05 22:04:00,-6.6,-11.9,30.88,West,272,0.0,7.0,77,0.00,,,0.00,Wunderground v.1.15,2013-12-06 05:04:00,
2013-12-05 22:08:00,-6.6,-11.9,30.89,West,272,0.0,7.0,77,0.00,,,0.00,Wunderground v.1.15,2013-12-06 05:08:00,
2013-12-05 22:14:00,-7.1,-12.4,30.89,West,270,1.0,7.0,77,0.00,,,0.00,Wunderground v.1.15,2013-12-06 05:14:00,
2013-12-05 22:20:00,-7.3,-12.6,30.89,West,269,2.0,7.0,77,0.00,,,0.00,Wunderground v.1.15,2013-12-06 05:20:00,
2013-12-05 22:22:00,-7.3,-12.3,30.89,West,268,2.0,7.0,78,0.00,,,0.00,Wunderground v.1.15,2013-12-06 05:22:00,
2013-12-05 22:28:00,-7.2,-12.0,30.89,West,268,2.0,7.0,79,0.00,,,0.00,Wunderground v.1.15,2013-12-06 05:28:00,
2013-12-05 22:30:00,-6.8,-11.6,30.89,West,268,2.0,7.0,79,0.00,,,0.00,Wunderground v.1.15,2013-12-06 05:30:00,
2013-12-05 22:36:00,-6.2,-11.0,30.89,West,268,1.0,7.0,79,0.00,,,0.00,Wunderground v.1.15,2013-12-06 05:36:00,
2013-12-05 22:42:00,-6.1,-11.2,30.89,West,268,1.0,7.0,78,0.00,,,0.00,Wunderground v.1.15,2013-12-06 05:42:00,
2013-12-05 22:48:00,-6.3,-11.6,30.89,West,268,0.0,7.0,77,0.00,,,0.00,Wunderground v.1.15,2013-12-06 05:48:00,
2013-12-05 22:54:00,-6.7,-12.0,30.89,West,268,1.0,7.0,77,0.00,,,0.00,Wunderground v.1.15,2013-12-06 05:54:00,
2013-12-05 23:00:00,-6.9,-12.2,30.90,West,268,1.0,1.0,77,0.00,,,0.00,Wunderground v.1.15,2013-12-06 06:00:00,
2013-12-05 23:06:00,-7.2,-12.5,30.90,West,268,0.0,7.0,77,0.00,,,0.00,Wunderground v.1.15,2013-12-06 06:06:00,
2013-12-05 23:12:00,-7.4,-12.4,30.90,West,268,0.0,7.0,78,0.00,,,0.00,Wunderground v.1.15,2013-12-06 06:12:00,
2013-12-05 23:18:00,-7.7,-12.7,30.90,West,268,0.0,7.0,78,0.00,,,0.00,Wunderground v.1.15,2013-12-06 06:18:00,
2013-12-05 23:24:00,-7.9,-12.7,30.91,West,268,0.0,7.0,79,0.00,,,0.00,Wunderground v.1.15,2013-12-06 06:24:00,
2013-12-05 23:30:00,-7.9,-12.7,30.91,West,268,0.0,7.0,79,0.00,,,0.00,Wunderground v.1.15,2013-12-06 06:30:00,
2013-12-05 23:36:00,-8.0,-12.8,30.91,West,268,0.0,7.0,79,0.00,,,0.00,Wunderground v.1.15,2013-12-06 06:36:00,
2013-12-05 23:42:00,-8.3,-13.1,30.91,West,268,0.0,7.0,79,0.00,,,0.00,Wunderground v.1.15,2013-12-06 06:42:00,
2013-12-05 23:48:00,-8.5,-13.3,30.91,West,268,0.0,7.0,79,0.00,,,0.00,Wunderground v.1.15,2013-12-06 06:48:00,
2013-12-05 23:54:00,-8.7,-13.2,30.91,West,268,1.0,7.0,80,0.00,,,0.00,Wunderground v.1.15,2013-12-06 06:54:00,